This demonstration page uses our WeatherBlox Daily Observations layout. Learn more.

Left ArrowRight Arrow

39.51506, -84.39828

Hourly Observations for March 28, 2020

Temp ( °F °C ) Dew Point ( °F °C ) Humidity (%) Winds ( mph kmh ) Pressure ( in mb ) Visibility ( mi km ) Precip ( " mm )
12:15 am 00:15 Cloudy with Thunderstorms 57 13.8 55 12.5 92 92 SE 3 6 29.85 1011 10 16.0934 0 0
12:35 am 00:35 Clear 56 13.5 55 12.5 94 94 Calm 29.81 1009 10 16.0934 0 0
12:55 am 00:55 Mostly Cloudy 57 13.8 55 12.7 93 93 Calm 29.8 1009 10 16.0934 0 0
1:15 am 01:15 Clear 56 13.5 55 12.6 94 94 NNE 3 6 29.79 1009 10 16.0934 0 0
1:35 am 01:35 Clear 56 13.4 55 12.6 95 95 Calm 29.8 1009 10 16.0934 0 0
1:55 am 01:55 Clear 55 13 54 12.4 96 96 W 3 6 29.82 1010 10 16.0934 0 0
2:15 am 02:15 Mostly Cloudy 55 13 55 12.7 98 98 N 6 9 29.83 1010 10 16.0934 0 0
2:35 am 02:35 Mostly Cloudy with Rain 56 13.3 55 12.7 96 96 Calm 29.82 1010 7 11.26538 0 0
2:55 am 02:55 Cloudy with Thunderstorms 56 13.2 55 12.7 97 97 NE 3 6 29.82 1010 5 8.0467 0 0
3:15 am 03:15 Cloudy 56 13.3 55 13 98 98 ENE 3 6 29.81 1010 7 11.26538 0 0
3:35 am 03:35 Partly Cloudy with Nearby Thunderstorms 56 13.1 55 12.9 99 99 ESE 7 11 29.77 1008 5 8.0467 0 0
3:55 am 03:55 Clear 55 13 55 12.7 98 98 SW 3 6 29.76 1008 7 11.26538 0 0
4:15 am 04:15 Clear 56 13.6 56 13.2 97 97 S 7 11 29.75 1007 10 16.0934 0 0
4:35 am 04:35 Clear with Mist and Fog 55 13 55 12.7 98 98 SSW 5 7 29.76 1008 5 8.0467 0 0
4:55 am 04:55 Partly Cloudy with Mist and Fog 56 13.4 56 13.1 98 98 S 5 7 29.76 1008 5 8.0467 0 0
5:15 am 05:15 Clear 56 13.3 55 13 98 98 SW 3 6 29.76 1008 7 11.26538 0 0
5:35 am 05:35 Clear with Mist and Fog 55 12.7 55 12.5 99 99 Calm 29.75 1008 5 8.0467 0 0
5:55 am 05:55 Partly Cloudy with Mist and Fog 55 12.6 55 12.5 99 99 SSW 3 6 29.75 1008 4 6.43736 0 0
6:15 am 06:15 Clear with Mist and Fog 55 12.7 55 12.6 99 99 Calm 29.74 1007 3.5 5.63269 0 0
6:35 am 06:35 Clear with Mist and Fog 55 12.6 55 12.5 99 99 Calm 29.74 1007 3 4.82802 0 0
6:55 am 06:55 Clear with Mist and Fog 53 11.9 53 11.9 100 100 Calm 29.75 1008 3 4.82802 0 0
7:15 am 07:15 Cloudy with Mist and Fog 53 11.7 53 11.7 100 100 Calm 29.77 1008 3.5 5.63269 0 0
7:35 am 07:35 Cloudy with Mist and Fog 55 12.5 55 12.5 100 100 Calm 29.76 1008 2.5 4.02335 0 0
7:55 am 07:55 Cloudy with Mist and Fog 54 12.2 54 12.2 100 100 Calm 29.75 1008 1.75 2.816345 0 0
8:15 am 08:15 Sunny with Mist and Fog 54 12.2 54 12.2 100 100 Calm 29.74 1007 2 3.21868 0 0
8:35 am 08:35 Sunny with Mist and Fog 55 12.7 55 12.7 100 100 Calm 29.74 1007 3 4.82802 0 0
8:55 am 08:55 Sunny with Mist and Fog 58 14.3 58 14.3 100 100 Calm 29.74 1007 4 6.43736 0 0
9:15 am 09:15 Sunny 64 18 63 17.3 96 96 SSW 7 11 29.74 1007 7 11.26538 0 0
9:35 am 09:35 Sunny 67 19.6 64 17.7 89 89 SSW 10 17 29.73 1007 10 16.0934 0 0
9:55 am 09:55 Sunny 71 21.6 65 18.3 82 82 SW 16 26 29.73 1007 10 16.0934 0 0
10:15 am 10:15 Sunny 71 21.9 65 18.3 80 80 SW 17 28 29.74 1007 10 16.0934 0 0
10:35 am 10:35 Mostly Cloudy 72 22.3 65 18.4 79 79 SW 17 28 29.74 1007 10 16.0934 0 0
10:55 am 10:55 Sunny 74 23.4 65 18.6 75 75 SW 20 31 29.74 1007 10 16.0934 0 0
11:15 am 11:15 Partly Cloudy 74 23.4 66 18.7 75 75 SW 18 30 29.75 1007 10 16.0934 0 0
11:35 am 11:35 Sunny 75 23.9 66 18.9 74 74 SSW 16 26 29.73 1007 10 16.0934 0 0
11:55 am 11:55 Partly Cloudy 76 24.2 66 18.9 72 72 SW 15 24 29.74 1007 10 16.0934 0 0
12:15 pm 12:15 Mostly Cloudy 75 24.1 66 18.8 72 72 SW 14 22 29.74 1007 10 16.0934 0 0
12:35 pm 12:35 Partly Cloudy 77 25.2 67 19.2 69 69 SW 14 22 29.73 1007 10 16.0934 0 0
12:55 pm 12:55 Mostly Cloudy 76 24.2 66 18.8 72 72 SW 14 22 29.74 1007 10 16.0934 0 0
1:15 pm 13:15 Cloudy 74 23.4 66 18.7 75 75 SSW 10 17 29.74 1007 10 16.0934 0 0
1:35 pm 13:35 Cloudy with Nearby Thunderstorms 75 23.9 66 19 74 74 SSW 13 20 29.75 1007 10 16.0934 0 0
1:55 pm 13:55 Cloudy with Light Rain 73 22.6 67 19.3 82 82 SW 13 20 29.75 1007 10 16.0934 0 0
2:15 pm 14:15 Cloudy 72 22.1 67 19.5 85 85 SW 3 6 29.74 1007 10 16.0934 0 0
2:35 pm 14:35 Cloudy with Light Thunderstorms 70 21 68 19.8 93 93 WSW 15 24 29.76 1008 2 3.21868 0 0
2:55 pm 14:55 Mostly Cloudy with Nearby Thunderstorms 72 22.3 68 20.2 88 88 W 9 15 29.75 1007 10 16.0934 0 0
3:15 pm 15:15 Partly Cloudy 73 22.9 69 20.6 87 87 WSW 5 7 29.75 1007 10 16.0934 0 0
3:35 pm 15:35 Cloudy 73 23 69 20.3 85 85 WSW 5 7 29.74 1007 10 16.0934 0 0
3:55 pm 15:55 Cloudy with Nearby Thunderstorms 73 23 69 20.5 86 86 WNW 5 7 29.76 1008 7 11.26538 0 0
4:15 pm 16:15 Cloudy with Rain 73 22.7 68 20 85 85 W 6 9 29.76 1008 7 11.26538 0 0
4:35 pm 16:35 Partly Cloudy 73 22.9 69 20.4 86 86 Calm 29.74 1007 10 16.0934 0 0
4:55 pm 16:55 Mostly Cloudy 74 23.2 69 20.3 84 84 Calm 29.74 1007 10 16.0934 0 0
5:15 pm 17:15 Partly Cloudy 74 23.2 68 20 82 82 Calm 29.73 1007 10 16.0934 0 0
5:35 pm 17:35 Cloudy 74 23.4 68 20.1 82 82 Calm 29.73 1007 10 16.0934 0 0
5:55 pm 17:55 Mostly Cloudy 74 23.5 68 20.2 82 82 Calm 29.73 1007 10 16.0934 0 0
6:15 pm 18:15 Partly Cloudy 74 23.4 69 20.4 83 83 Calm 29.74 1007 7 11.26538 0 0
6:35 pm 18:35 Mostly Cloudy 74 23.2 67 19.6 80 80 Calm 29.74 1007 10 16.0934 0 0
6:55 pm 18:55 Cloudy with Rain 73 22.7 69 20.5 87 87 Calm 29.74 1007 7 11.26538 0 0
7:15 pm 19:15 Mostly Cloudy 70 21.2 69 20.8 98 98 Calm 29.74 1007 7 11.26538 0 0
7:35 pm 19:35 Cloudy with Mist and Fog 69 20.5 68 20.2 98 98 E 3 6 29.75 1008 5 8.0467 0 0
7:55 pm 19:55 Sunny with Mist and Fog 69 20.5 68 20.2 98 98 Calm 29.75 1008 5 8.0467 0 0
8:15 pm 20:15 Mostly Cloudy with Mist and Fog 67 19.4 67 19.3 99 99 N 3 6 29.75 1007 0.75 1.207005 0 0
8:35 pm 20:35 Clear with Mist and Fog 67 19.2 66 19.1 99 99 NNE 6 9 29.73 1007 2.5 4.02335 0 0
8:55 pm 20:55 Clear with Mist and Fog 65 18.4 65 18.3 99 99 SW 3 6 29.75 1007 3.5 5.63269 0 0
9:15 pm 21:15 Clear with Mist and Fog 64 17.9 64 17.9 100 100 W 3 6 29.74 1007 3 4.82802 0 0
9:35 pm 21:35 Mostly Cloudy with Mist and Fog 64 18 64 18 100 100 Calm 29.75 1007 1 1.60934 0 0
9:55 pm 21:55 Mostly Cloudy with Mist and Fog 64 18 N/A N/A Calm 29.76 1008 0.75 1.207005 0 0
10:15 pm 22:15 Clear with Mist and Fog 63 17 N/A N/A Calm 29.75 1008 2.5 4.02335 0 0
10:35 pm 22:35 Partly Cloudy with Mist and Fog 64 18 N/A N/A Calm 29.75 1007 3 4.82802 0 0
10:55 pm 22:55 Hazy 63 17 N/A N/A Calm 29.74 1007 5 8.0467 0 0
11:15 pm 23:15 Cloudy 65 18.5 64 18 97 97 SSW 5 7 29.75 1007 10 16.0934 0 0
11:35 pm 23:35 Cloudy with Light Rain 67 19.7 64 17.5 87 87 SW 8 13 29.77 1008 10 16.0934 0 0
11:55 pm 23:55 Cloudy with Thunderstorms 67 19.5 64 17.9 91 91 SW 7 11 29.78 1008 7 11.26538 0 0

Powered by AerisWeather